Location: ??????????
(41.2581°N, 22.8006°E)
Time: 03:52:00
(UTC+00:00)

Gbstr 26 Del rocket - Pass Details

Date: 13 December 2025
Orbit: 490 x 1218 km, 51.8° (Epoch: 12 January)

Event Time Altitude Azimuth Distance (km) Brightness Sun altitude
Rises 15:22:58 0° 247° (WSW) 2,942 9.4 -4.6°
Reaches altitude 10° 15:25:30 10° 253° (WSW) 1,933 7.4 -5.0°
Maximum altitude 15:29:41 49° 329° (NNW) 696 3.4 -5.7°
Drops below altitude 10° 15:33:24 10° 46° (NE) 1,717 4.7 -6.4°
Enters shadow 15:33:57 - 48° (NE) 1,932 5.0 -6.5°
